TimeCDT,TemperatureF,Dew PointF,Humidity,Sea Level PressureIn,VisibilityMPH,Wind Direction,Wind SpeedMPH,Gust SpeedMPH,PrecipitationIn,Events,Conditions,WindDirDegrees,DateUTC
12:48 AM,69.8,69.8,100,30.06,9.0,Calm,Calm,-,0.01,Rain,Light Rain,0,2013-07-07 05:48:00
12:56 AM,68.9,68.9,100,30.06,9.0,Calm,Calm,-,0.01,Rain,Light Rain,0,2013-07-07 05:56:00
1:56 AM,68.9,68.9,100,30.05,10.0,Calm,Calm,-,0.00,,Partly Cloudy,0,2013-07-07 06:56:00
2:33 AM,66.2,66.2,100,30.05,1.8,Calm,Calm,-,N/A,,Clear,0,2013-07-07 07:33:00
2:35 AM,66.2,66.2,100,30.06,1.0,Calm,Calm,-,N/A,,Clear,0,2013-07-07 07:35:00
2:56 AM,66.9,66.9,100,30.06,0.5,Calm,Calm,-,N/A,Fog,Fog,0,2013-07-07 07:56:00
3:05 AM,66.2,66.2,100,30.06,0.2,Calm,Calm,-,N/A,Fog,Fog,0,2013-07-07 08:05:00
3:20 AM,66.2,66.2,100,30.06,0.5,Calm,Calm,-,N/A,Fog,Fog,0,2013-07-07 08:20:00
3:31 AM,64.4,64.4,100,30.06,0.2,Calm,Calm,-,N/A,Fog,Fog,0,2013-07-07 08:31:00
3:44 AM,64.4,64.4,100,30.06,0.2,Calm,Calm,-,0.00,Fog,Fog,0,2013-07-07 08:44:00
3:56 AM,64.9,64.9,100,30.05,0.2,Calm,Calm,-,0.00,Fog,Fog,0,2013-07-07 08:56:00
4:04 AM,64.4,64.4,100,30.06,0.2,Calm,Calm,-,N/A,Fog,Fog,0,2013-07-07 09:04:00
4:11 AM,64.4,64.4,100,30.07,0.2,Calm,Calm,-,N/A,Fog,Fog,0,2013-07-07 09:11:00
4:18 AM,64.4,64.4,100,30.07,0.2,Calm,Calm,-,N/A,Fog,Fog,0,2013-07-07 09:18:00
4:33 AM,64.4,64.4,100,30.07,0.2,Calm,Calm,-,N/A,Fog,Fog,0,2013-07-07 09:33:00
4:49 AM,64.4,64.4,100,30.08,0.2,Calm,Calm,-,N/A,Fog,Fog,0,2013-07-07 09:49:00
4:56 AM,64.9,64.9,100,30.07,0.2,Calm,Calm,-,N/A,Fog,Fog,0,2013-07-07 09:56:00
5:09 AM,64.4,64.4,100,30.08,0.5,Calm,Calm,-,N/A,Fog,Fog,0,2013-07-07 10:09:00
5:30 AM,64.4,64.4,100,30.09,0.2,Calm,Calm,-,N/A,Fog,Fog,0,2013-07-07 10:30:00
5:37 AM,64.4,64.4,100,30.09,0.2,Calm,Calm,-,N/A,Fog,Fog,0,2013-07-07 10:37:00
5:56 AM,63.9,63.9,100,30.08,0.2,Calm,Calm,-,N/A,Fog,Fog,0,2013-07-07 10:56:00
6:56 AM,64.9,64.9,100,30.09,0.8,Calm,Calm,-,N/A,,Mostly Cloudy,0,2013-07-07 11:56:00
7:28 AM,66.2,66.2,100,30.11,6.0,SE,4.6,-,N/A,,Partly Cloudy,140,2013-07-07 12:28:00
7:56 AM,66.9,66.9,100,30.11,8.0,SE,4.6,-,N/A,,Mostly Cloudy,140,2013-07-07 12:56:00
8:56 AM,72.0,70.0,93,30.13,10.0,Calm,Calm,-,N/A,,Mostly Cloudy,0,2013-07-07 13:56:00
9:56 AM,72.9,70.0,91,30.12,10.0,South,3.5,-,N/A,,Overcast,190,2013-07-07 14:56:00
10:56 AM,75.9,70.9,84,30.12,10.0,Calm,Calm,-,N/A,,Overcast,0,2013-07-07 15:56:00
11:56 AM,79.0,70.9,76,30.11,10.0,South,4.6,-,N/A,,Mostly Cloudy,170,2013-07-07 16:56:00
12:56 PM,81.9,70.9,69,30.10,10.0,South,8.1,-,N/A,,Partly Cloudy,170,2013-07-07 17:56:00
1:56 PM,81.9,68.9,65,30.09,10.0,SE,4.6,-,N/A,,Partly Cloudy,140,2013-07-07 18:56:00
2:56 PM,84.9,68.9,59,30.08,10.0,South,6.9,-,N/A,,Scattered Clouds,170,2013-07-07 19:56:00
3:56 PM,86.0,68.9,56,30.06,10.0,SSW,8.1,-,N/A,,Scattered Clouds,200,2013-07-07 20:56:00
4:56 PM,86.0,65.8,51,30.05,10.0,Calm,Calm,-,0.00,,Partly Cloudy,0,2013-07-07 21:56:00
5:56 PM,86.0,65.8,51,30.04,10.0,Variable,3.5,-,N/A,,Partly Cloudy,0,2013-07-07 22:56:00
6:56 PM,84.9,68.9,59,30.05,10.0,WSW,4.6,-,N/A,,Clear,240,2013-07-07 23:56:00
7:56 PM,81.9,68.9,65,30.06,10.0,Calm,Calm,-,N/A,,Clear,0,2013-07-08 00:56:00
8:56 PM,77.9,70.0,76,30.07,10.0,SE,4.6,-,N/A,,Clear,140,2013-07-08 01:56:00
9:56 PM,75.9,70.0,82,30.09,10.0,SE,4.6,-,0.00,,Clear,130,2013-07-08 02:56:00
10:56 PM,72.9,70.9,93,30.09,10.0,SE,3.5,-,N/A,,Clear,140,2013-07-08 03:56:00
11:56 PM,72.0,72.0,100,30.10,10.0,South,3.5,-,N/A,,Clear,170,2013-07-08 04:56:00